Temp
-19 -19 -19 -19 -19 -19 -19 -18 -18 -17 -17 -17 -16 -16 -16 -15 -15 -15 -15 -14 -14 -15 -15 -15 -15 -15 -15 -15 -15 -15 -15 -16 -16 -16 -16 -16 -16 -16 -17 -17 -17 -17 -17 -17 -17 -18 -17 -18 -17 -18 -18 -18 -18 -19
-19 -19 -19 -19 -19 -19 -19 -19 -18 -18 -17 -17 -17 -16 -16 -16 -15 -15 -15 -15 -15 -15 -15 -15 -15 -15 -15 -15 -16 -16 -16 -16 -16 -16 -16 -16 -17 -17 -17 -17 -18 -18 -18 -18 -18 -18 -18 -18 -18 -18 -18 -19 -19 -20
-19 -19 -19 -19 -19 -19 -19 -19 -19 -18 -18 -17 -17 -17 -16 -16 -16 -15 -15 -15 -15 -15 -15 -15 -16 -16 -16 -16 -16 -16 -16 -16 -16 -17 -16 -17 -17 -17 -17 -17 -18 -18 -18 -18 -18 -18 -18 -19 -19 -20 -20 -20 -20 -21
-19 -19 -19 -19 -19 -19 -19 -19 -18 -19 -18 -18 -18 -17 -17 -17 -16 -16 -16 -16 -16 -16 -16 -16 -16 -16 -16 -16 -16 -17 -17 -17 -17 -17 -17 -17 -17 -17 -17 -18 -18 -18 -18 -19 -18 -19 -18 -20 -20 -20 -20 -20 -21 -21
-19 -19 -19 -19 -19 -19 -19 -19 -19 -19 -18 -18 -18 -18 -18 -17 -17 -17 -17 -16 -16 -17 -16 -17 -17 -17 -17 -17 -17 -17 -17 -17 -17 -17 -18 -18 -18 -18 -18 -18 -18 -18 -18 -18 -18 -19 -19 -19 -19 -20 -20 -20 -20 -21
-20 -20 -19 -19 -19 -19 -19 -19 -19 -19 -19 -19 -18 -18 -18 -18 -18 -17 -17 -17 -17 -17 -17 -17 -17 -17 -17 -17 -18 -18 -18 -18 -18 -18 -18 -18 -19 -19 -18 -18 -18 -19 -19 -19 -19 -19 -20 -20 -20 -21 -21 -21 -22 -22
-21 -20 -19 -19 -19 -19 -19 -19 -19 -19 -19 -19 -18 -18 -18 -18 -18 -18 -17 -18 -18 -18 -18 -17 -17 -17 -18 -18 -18 -18 -18 -18 -18 -18 -18 -18 -19 -19 -18 -18 -19 -19 -20 -20 -20 -20 -20 -21 -21 -21 -21 -22 -23 -23
-22 -21 -20 -20 -19 -19 -19 -19 -19 -19 -19 -19 -19 -19 -19 -18 -18 -18 -18 -18 -18 -18 -18 -18 -17 -17 -18 -18 -19 -19 -19 -19 -18 -18 -19 -19 -19 -19 -18 -19 -20 -20 -20 -20 -20 -20 -21 -21 -21 -22 -23 -23 -23 -24
-23 -22 -21 -21 -20 -19 -19 -19 -19 -19 -19 -19 -20 -19 -19 -19 -19 -18 -19 -19 -19 -19 -18 -18 -18 -18 -18 -18 -19 -19 -19 -19 -19 -19 -19 -19 -18 -19 -19 -19 -19 -20 -20 -21 -21 -21 -21 -22 -23 -24 -24 -24 -25 -25
-23 -22 -22 -21 -20 -20 -20 -19 -19 -19 -19 -20 -20 -20 -19 -19 -19 -19 -19 -19 -19 -19 -18 -18 -18 -18 -18 -19 -19 -19 -19 -19 -19 -19 -19 -19 -19 -19 -19 -20 -20 -20 -21 -21 -21 -22 -23 -24 -24 -24 -24 -25 -26 -26
-23 -23 -23 -22 -21 -20 -20 -20 -20 -20 -20 -20 -20 -19 -19 -19 -19 -20 -20 -19 -19 -19 -19 -19 -18 -19 -19 -19 -19 -19 -19 -19 -19 -19 -19 -19 -19 -20 -20 -20 -21 -21 -21 -22 -23 -24 -24 -24 -24 -25 -25 -26 -26 -27
-24 -23 -23 -23 -22 -21 -21 -21 -20 -20 -20 -20 -20 -20 -20 -20 -20 -20 -20 -20 -19 -19 -19 -19 -20 -19 -20 -20 -20 -20 -20 -20 -19 -19 -20 -19 -20 -20 -20 -21 -21 -22 -23 -24 -24 -24 -24 -25 -25 -26 -26 -27 -27 -28
-25 -25 -24 -23 -23 -22 -22 -21 -21 -20 -20 -20 -20 -20 -20 -20 -20 -20 -19 -19 -19 -20 -20 -20 -20 -20 -20 -21 -21 -21 -21 -21 -20 -20 -20 -21 -21 -21 -21 -22 -23 -23 -24 -24 -24 -25 -25 -26 -26 -27 -28 -28 -29 -29
-26 -26 -25 -25 -24 -24 -23 -22 -22 -21 -21 -21 -21 -21 -21 -20 -20 -20 -20 -21 -20 -20 -20 -21 -21 -21 -21 -21 -21 -21 -21 -21 -21 -21 -22 -22 -22 -22 -23 -24 -25 -25 -25 -25 -25 -26 -26 -27 -27 -28 -29 -29 -29 -30
-27 -27 -27 -27 -25 -24 -24 -23 -23 -22 -21 -21 -21 -21 -21 -21 -21 -21 -21 -21 -21 -21 -21 -21 -21 -21 -21 -21 -21 -22 -22 -22 -23 -23 -23 -23 -23 -24 -25 -25 -25 -25 -25 -26 -27 -27 -27 -28 -28 -29 -29 -30 -30 -30
-29 -28 -28 -27 -27 -26 -25 -24 -24 -23 -23 -22 -22 -22 -22 -21 -21 -21 -21 -21 -21 -21 -21 -21 -22 -22 -22 -22 -22 -23 -24 -24 -25 -24 -24 -24 -25 -26 -26 -26 -26 -26 -27 -27 -28 -29 -29 -29 -29 -30 -30 -30 -31 -31
-29 -29 -28 -28 -28 -27 -27 -26 -25 -25 -25 -24 -24 -24 -24 -23 -23 -23 -22 -22 -22 -22 -23 -23 -23 -23 -23 -23 -23 -25 -25 -25 -25 -24 -24 -25 -26 -27 -27 -27 -27 -28 -28 -29 -30 -30 -30 -30 -31 -31 -31 -31 -32 -32
-29 -29 -29 -29 -28 -28 -28 -27 -27 -27 -26 -25 -25 -25 -24 -24 -24 -24 -24 -24 -24 -24 -24 -24 -24 -24 -24 -25 -26 -26 -25 -25 -24 -25 -26 -27 -27 -28 -28 -28 -29 -29 -30 -30 -30 -30 -31 -31 -31 -32 -32 -32 -32 -32
-29 -29 -29 -29 -29 -29 -28 -28 -28 -27 -27 -27 -27 -26 -26 -26 -25 -25 -25 -25 -25 -25 -25 -25 -25 -25 -26 -27 -26 -26 -25 -25 -26 -27 -27 -28 -29 -29 -29 -30 -30 -30 -30 -30 -31 -31 -31 -32 -32 -33 -32 -32 -32 -33
-29 -29 -29 -29 -29 -29 -29 -28 -28 -28 -27 -27 -27 -27 -27 -26 -26 -26 -26 -26 -26 -26 -26 -26 -27 -27 -27 -26 -26 -27 -28 -28 -28 -28 -29 -29 -30 -30 -31 -31 -31 -31 -31 -31 -32 -32 -32 -33 -33 -33 -33 -33 -33 -33
-29 -29 -29 -29 -29 -29 -29 -29 -29 -28 -28 -28 -28 -28 -27 -27 -27 -27 -27 -27 -27 -26 -27 -28 -27 -27 -28 -28 -29 -29 -29 -30 -29 -29 -30 -30 -31 -31 -31 -31 -31 -31 -32 -32 -32 -32 -33 -33 -33 -33 -33 -33 -33 -33
-30 -30 -30 -30 -30 -30 -30 -29 -29 -29 -29 -29 -28 -28 -28 -28 -28 -28 -28 -28 -28 -29 -29 -28 -28 -29 -29 -30 -30 -30 -30 -30 -31 -31 -31 -31 -31 -31 -31 -31 -31 -32 -32 -32 -32 -33 -33 -33 -33 -33 -33 -33 -34 -33
-31 -31 -31 -31 -30 -30 -30 -30 -30 -30 -29 -29 -30 -29 -29 -29 -30 -30 -29 -29 -30 -30 -30 -30 -30 -30 -31 -31 -31 -31 -31 -32 -31 -31 -31 -31 -31 -32 -32 -32 -32 -32 -32 -33 -33 -33 -34 -34 -33 -33 -33 -33 -34 -33
-31 -31 -31 -31 -31 -30 -30 -30 -30 -30 -30 -30 -30 -31 -31 -31 -31 -31 -30 -31 -31 -31 -31 -31 -31 -32 -32 -32 -32 -32 -32 -32 -32 -32 -32 -32 -32 -32 -32 -33 -33 -33 -33 -33 -33 -33 -34 -33 -34 -34 -33 -34 -34 -34
-31 -31 -31 -31 -31 -31 -31 -31 -31 -31 -31 -31 -31 -31 -31 -31 -31 -31 -31 -32 -32 -32 -32 -32 -33 -33 -33 -33 -33 -32 -32 -32 -32 -32 -32 -33 -32 -33 -33 -34 -34 -34 -34 -34 -34 -34 -34 -34 -34 -34 -34 -34 -34 -34
-31 -31 -31 -31 -31 -31 -31 -31 -31 -31 -31 -31 -31 -31 -32 -31 -31 -31 -32 -33 -33 -33 -33 -33 -33 -33 -33 -33 -33 -33 -33 -33 -33 -33 -33 -33 -33 -33 -34 -34 -34 -34 -34 -34 -34 -34 -34 -34 -34 -34 -34 -34 -34 -34
-31 -31 -32 -31 -31 -31 -31 -31 -31 -31 -31 -32 -32 -32 -32 -32 -32 -33 -33 -33 -33 -33 -33 -33 -33 -33 -33 -33 -33 -33 -33 -33 -33 -34 -34 -34 -34 -34 -34 -34 -34 -34 -34 -34 -34 -34 -34 -34 -34 -34 -34 -34 -34 -34
-32 -32 -32 -32 -32 -32 -32 -32 -32 -32 -32 -33 -33 -33 -33 -33 -33 -33 -33 -33 -33 -33 -33 -33 -33 -33 -33 -33 -33 -33 -33 -34 -34 -34 -34 -34 -34 -34 -34 -34 -34 -34 -34 -34 -34 -34 -34 -34 -34 -34 -34 -34 -34 -33
-32 -32 -32 -32 -32 -32 -33 -33 -33 -33 -33 -33 -33 -33 -33 -33 -33 -33 -33 -33 -33 -33 -33 -33 -33 -33 -33 -33 -33 -33 -33 -33 -34 -34 -34 -34 -34 -34 -34 -34 -34 -34 -34 -34 -34 -34 -34 -34 -34 -34 -34 -34 -34 -33
-33 -33 -33 -33 -34 -34 -34 -33 -33 -33 -33 -33 -33 -33 -33 -33 -33 -33 -33 -33 -33 -33 -32 -32 -33 -33 -33 -34 -34 -34 -33 -34 -34 -34 -34 -34 -34 -34 -34 -34 -34 -33 -33 -33 -34 -34 -34 -34 -34 -34 -33 -33 -33 -33
-33 -33 -33 -33 -33 -34 -33 -33 -33 -33 -33 -33 -33 -33 -33 -33 -33 -32 -32 -32 -32 -32 -32 -32 -32 -33 -34 -34 -34 -34 -34 -34 -34 -34 -34 -34 -34 -34 -34 -34 -33 -33 -34 -34 -34 -34 -34 -33 -33 -33 -33 -34 -34 -34
-33 -33 -33 -33 -33 -33 -33 -33 -33 -33 -33 -33 -33 -33 -32 -32 -32 -32 -33 -32 -33 -32 -32 -32 -33 -35 -35 -35 -35 -34 -34 -34 -34 -34 -34 -34 -34 -34 -34 -34 -34 -34 -34 -34 -34 -34 -34 -34 -34 -34 -34 -34 -34 -34
-34 -33 -33 -33 -33 -33 -33 -33 -33 -32 -33 -33 -33 -33 -33 -33 -33 -33 -33 -33 -33 -33 -33 -33 -34 -35 -35 -35 -35 -35 -34 -34 -34 -34 -34 -34 -34 -34 -34 -34 -34 -34 -34 -34 -34 -34 -34 -34 -34 -34 -35 -35 -35 -35
Height
5604 5613 5621 5629 5636 5644 5651 5660 5667 5674 5680 5687 5694 5700 5705 5710 5716 5720 5726 5729 5733 5736 5738 5741 5744 5747 5748 5749 5749 5751 5751 5750 5750 5749 5748 5745 5744 5743 5740 5736 5733 5730 5720 5717 5711 5709 5707 5701 5696 5693 5688 5680 5674 5667
5598 5606 5614 5622 5630 5637 5645 5652 5660 5667 5674 5680 5687 5693 5699 5704 5709 5714 5719 5722 5725 5729 5732 5734 5736 5738 5739 5740 5742 5742 5743 5742 5741 5739 5738 5735 5733 5732 5728 5723 5722 5721 5715 5707 5704 5703 5697 5691 5687 5681 5675 5669 5662 5656
5590 5598 5607 5615 5623 5631 5638 5646 5653 5660 5666 5673 5679 5685 5691 5697 5701 5706 5710 5714 5717 5720 5723 5726 5727 5729 5731 5732 5733 5734 5733 5733 5731 5729 5727 5726 5724 5721 5717 5712 5708 5709 5704 5698 5693 5695 5686 5681 5675 5669 5664 5658 5651 5643
5582 5591 5599 5607 5616 5623 5631 5639 5646 5653 5659 5666 5672 5678 5683 5688 5693 5697 5702 5706 5709 5712 5714 5717 5718 5720 5721 5722 5723 5724 5724 5723 5721 5719 5717 5715 5713 5710 5704 5701 5700 5700 5692 5688 5685 5682 5674 5671 5665 5658 5650 5644 5637 5627
5574 5583 5593 5600 5607 5614 5623 5631 5639 5645 5652 5658 5664 5670 5675 5680 5684 5688 5693 5697 5700 5703 5706 5708 5709 5712 5712 5713 5713 5714 5713 5712 5711 5710 5707 5704 5702 5698 5692 5688 5690 5686 5681 5677 5671 5666 5662 5656 5650 5643 5636 5629 5620 5611
5565 5574 5583 5593 5601 5607 5615 5622 5631 5638 5645 5650 5656 5662 5667 5671 5676 5680 5684 5687 5690 5693 5696 5699 5701 5701 5702 5703 5703 5703 5702 5702 5700 5698 5696 5692 5691 5686 5680 5677 5678 5673 5669 5663 5659 5655 5648 5642 5635 5630 5622 5613 5604 5594
5556 5564 5573 5583 5592 5600 5608 5615 5623 5630 5637 5642 5647 5653 5657 5662 5666 5670 5675 5678 5680 5682 5685 5688 5690 5694 5694 5692 5692 5692 5692 5691 5689 5686 5682 5680 5679 5674 5671 5667 5666 5661 5657 5651 5645 5640 5636 5629 5623 5616 5606 5597 5588 5578
5547 5555 5564 5573 5582 5591 5600 5607 5615 5623 5628 5634 5638 5643 5647 5651 5656 5661 5664 5667 5670 5672 5674 5676 5680 5683 5685 5684 5683 5681 5680 5679 5677 5673 5671 5670 5666 5663 5660 5659 5655 5649 5643 5638 5633 5628 5621 5614 5606 5597 5589 5581 5574 5565
5539 5546 5554 5563 5573 5582 5591 5599 5607 5615 5620 5624 5629 5633 5636 5642 5647 5652 5653 5656 5657 5661 5662 5666 5669 5670 5670 5670 5670 5670 5668 5666 5664 5662 5661 5658 5655 5651 5649 5644 5640 5635 5628 5623 5618 5612 5607 5599 5590 5581 5572 5564 5555 5549
5529 5536 5544 5553 5563 5572 5581 5590 5598 5606 5611 5614 5618 5622 5627 5634 5637 5640 5641 5642 5644 5647 5651 5654 5656 5656 5657 5657 5654 5653 5651 5651 5650 5651 5648 5646 5643 5639 5635 5630 5626 5621 5614 5608 5602 5596 5589 5582 5574 5566 5558 5548 5537 5528
5519 5527 5535 5544 5552 5562 5572 5581 5589 5596 5600 5602 5605 5612 5618 5621 5624 5626 5628 5631 5633 5635 5639 5641 5642 5644 5644 5643 5641 5638 5634 5632 5634 5634 5632 5631 5629 5624 5620 5615 5610 5604 5598 5591 5585 5578 5570 5563 5557 5550 5541 5531 5521 5511
5507 5516 5526 5533 5541 5550 5559 5569 5578 5584 5587 5592 5598 5602 5606 5608 5611 5613 5615 5618 5620 5624 5627 5629 5630 5630 5630 5628 5626 5624 5622 5619 5620 5620 5616 5615 5614 5608 5603 5598 5592 5587 5581 5575 5567 5561 5554 5546 5538 5530 5521 5512 5505 5496
5499 5506 5514 5523 5531 5539 5548 5558 5566 5571 5576 5583 5585 5588 5591 5593 5596 5600 5604 5606 5610 5612 5614 5615 5616 5616 5616 5615 5612 5611 5609 5608 5606 5604 5602 5601 5597 5593 5587 5583 5579 5572 5565 5559 5553 5546 5538 5532 5524 5514 5505 5495 5487 5481
5490 5497 5505 5512 5520 5529 5537 5546 5554 5559 5565 5568 5571 5574 5579 5582 5586 5592 5595 5596 5598 5598 5600 5602 5602 5603 5602 5599 5598 5596 5593 5591 5589 5589 5588 5586 5582 5577 5572 5568 5563 5556 5550 5545 5539 5532 5525 5516 5509 5501 5490 5480 5472 5465
5483 5489 5498 5504 5510 5519 5527 5532 5540 5549 5552 5556 5560 5563 5570 5573 5576 5579 5581 5583 5585 5586 5587 5588 5588 5588 5586 5583 5583 5580 5577 5574 5574 5574 5573 5570 5566 5561 5557 5551 5546 5541 5536 5530 5522 5515 5508 5500 5493 5487 5477 5467 5458 5450
5475 5483 5491 5499 5504 5510 5516 5523 5528 5534 5538 5543 5548 5555 5557 5561 5561 5564 5566 5569 5571 5573 5574 5574 5574 5573 5571 5569 5569 5566 5563 5562 5560 5559 5556 5553 5550 5546 5540 5535 5531 5526 5520 5514 5507 5499 5492 5484 5477 5470 5463 5453 5445 5434
5470 5479 5486 5493 5500 5504 5509 5514 5518 5523 5527 5534 5541 5543 5545 5548 5549 5552 5554 5557 5557 5559 5560 5559 5560 5559 5558 5555 5554 5552 5549 5548 5546 5544 5540 5539 5536 5529 5524 5520 5515 5510 5504 5497 5491 5485 5477 5469 5462 5454 5448 5441 5431 5422
5467 5475 5480 5486 5492 5497 5502 5505 5509 5512 5519 5525 5529 5531 5533 5536 5539 5541 5542 5544 5546 5545 5546 5547 5547 5546 5545 5542 5538 5535 5533 5532 5531 5530 5529 5523 5518 5513 5508 5504 5500 5494 5489 5483 5476 5471 5463 5456 5449 5442 5435 5427 5421 5413
5465 5471 5476 5481 5486 5491 5495 5499 5503 5507 5513 5516 5519 5521 5522 5525 5527 5529 5530 5532 5532 5532 5534 5536 5534 5534 5531 5526 5522 5519 5518 5518 5519 5516 5512 5506 5501 5498 5493 5488 5484 5480 5474 5467 5463 5457 5452 5444 5436 5431 5425 5418 5412 5405
5463 5468 5473 5478 5481 5485 5489 5494 5496 5500 5506 5508 5510 5512 5513 5515 5517 5517 5518 5518 5519 5520 5523 5523 5521 5517 5514 5512 5510 5508 5505 5503 5501 5500 5499 5493 5487 5483 5478 5473 5470 5466 5460 5454 5449 5444 5440 5434 5427 5421 5416 5410 5404 5399
5460 5462 5468 5472 5476 5481 5484 5487 5490 5494 5496 5498 5500 5502 5503 5504 5504 5505 5505 5506 5508 5511 5509 5506 5504 5504 5503 5500 5496 5494 5492 5488 5486 5484 5483 5482 5478 5472 5466 5460 5455 5451 5446 5442 5438 5434 5428 5423 5419 5413 5408 5403 5397 5391
5456 5460 5464 5468 5472 5476 5480 5483 5486 5488 5491 5491 5493 5492 5492 5492 5493 5494 5494 5496 5497 5495 5491 5492 5492 5491 5489 5486 5483 5480 5477 5475 5473 5470 5466 5463 5462 5459 5453 5446 5443 5438 5433 5428 5425 5422 5418 5413 5409 5404 5398 5394 5389 5384
5453 5458 5461 5464 5468 5472 5476 5478 5480 5480 5481 5482 5482 5483 5484 5483 5483 5483 5484 5486 5484 5479 5480 5480 5479 5477 5476 5474 5470 5466 5463 5462 5459 5456 5452 5448 5445 5441 5438 5434 5429 5425 5422 5417 5412 5410 5407 5402 5398 5393 5389 5384 5380 5376
5452 5456 5459 5462 5465 5467 5469 5469 5469 5470 5471 5472 5473 5473 5474 5474 5474 5474 5476 5476 5471 5470 5469 5468 5467 5465 5462 5460 5457 5454 5451 5448 5445 5442 5437 5433 5430 5427 5422 5419 5414 5411 5408 5406 5402 5398 5394 5390 5386 5382 5378 5375 5371 5367
5449 5451 5454 5456 5457 5458 5458 5459 5461 5463 5464 5465 5466 5465 5465 5464 5464 5466 5466 5464 5461 5460 5459 5458 5456 5454 5451 5447 5445 5442 5437 5433 5430 5429 5425 5416 5414 5413 5410 5406 5403 5400 5396 5394 5390 5387 5384 5380 5376 5373 5369 5365 5362 5359
5446 5448 5450 5450 5451 5453 5454 5455 5456 5457 5457 5457 5457 5456 5455 5455 5455 5455 5455 5453 5452 5451 5449 5447 5444 5440 5437 5433 5429 5425 5421 5418 5414 5411 5410 5404 5401 5399 5398 5396 5394 5391 5387 5384 5381 5378 5375 5372 5369 5366 5362 5358 5354 5350
5442 5444 5444 5445 5447 5448 5449 5449 5449 5449 5448 5447 5447 5446 5446 5446 5446 5446 5444 5443 5441 5439 5436 5432 5428 5425 5422 5419 5415 5411 5406 5401 5398 5397 5395 5393 5390 5388 5387 5385 5383 5381 5378 5376 5372 5369 5366 5363 5360 5357 5353 5349 5344 5339
5439 5439 5440 5441 5441 5442 5441 5441 5440 5440 5439 5439 5439 5439 5438 5438 5437 5434 5431 5429 5426 5424 5420 5416 5412 5408 5404 5401 5398 5395 5392 5387 5385 5384 5383 5381 5379 5377 5376 5374 5371 5369 5367 5364 5362 5358 5356 5353 5349 5345 5341 5338 5333 5328
5433 5434 5434 5434 5433 5433 5433 5433 5433 5433 5432 5432 5432 5431 5429 5427 5424 5421 5419 5415 5412 5408 5404 5400 5396 5391 5387 5384 5382 5380 5378 5375 5373 5373 5372 5370 5369 5367 5365 5363 5361 5358 5356 5353 5350 5346 5343 5340 5336 5332 5328 5324 5320 5315
5428 5427 5427 5427 5427 5427 5426 5425 5426 5425 5424 5423 5421 5419 5417 5413 5408 5406 5403 5400 5395 5390 5385 5380 5376 5373 5369 5367 5366 5364 5363 5361 5360 5361 5360 5360 5358 5356 5354 5352 5349 5346 5344 5341 5337 5334 5330 5327 5323 5318 5314 5310 5306 5301
5421 5421 5421 5421 5420 5419 5416 5416 5416 5414 5413 5411 5409 5404 5402 5398 5395 5393 5389 5384 5379 5374 5368 5361 5352 5344 5345 5348 5350 5350 5350 5349 5349 5349 5348 5348 5346 5344 5343 5340 5337 5334 5331 5328 5325 5322 5318 5314 5310 5306 5302 5298 5294 5290
5413 5412 5411 5410 5409 5408 5406 5405 5403 5403 5402 5399 5396 5392 5389 5385 5381 5379 5374 5369 5365 5360 5355 5348 5341 5334 5332 5333 5336 5337 5337 5337 5337 5337 5336 5335 5333 5331 5329 5327 5324 5322 5319 5316 5313 5309 5306 5302 5298 5294 5290 5285 5281 5277
5403 5401 5400 5399 5398 5396 5395 5393 5392 5391 5390 5386 5383 5380 5376 5372 5369 5365 5361 5357 5354 5350 5344 5338 5333 5329 5327 5325 5325 5325 5325 5325 5325 5324 5323 5321 5320 5317 5315 5313 5311 5308 5305 5302 5299 5295 5292 5288 5284 5280 5276 5272 5268 5263
Wind_Speed
46 51 54 52 46 46 45 42 43 42 39 36 35 34 34 34 33 32 33 32 32 31 31 31 32 31 31 31 32 32 33 33 34 34 34 37 39 42 47 48 43 39 43 38 38 35 36 38 41 44 46 49 53 56
46 48 49 50 45 46 46 44 44 44 43 40 38 36 35 34 34 35 34 34 34 34 34 35 35 34 35 35 35 35 34 35 36 37 39 44 47 50 53 54 44 39 36 39 40 37 40 42 45 48 50 55 57 61
47 47 53 53 48 43 44 46 43 45 45 44 41 39 38 36 36 36 36 36 35 35 36 36 36 36 36 37 37 36 36 36 38 40 42 47 52 56 55 50 45 35 33 39 44 39 44 46 48 51 54 58 61 66
50 48 45 48 52 48 46 46 45 45 45 45 43 42 42 40 38 37 37 37 36 37 38 37 37 38 38 37 37 37 36 38 41 43 49 54 58 56 50 44 42 36 40 42 44 43 48 48 52 57 63 63 65 71
57 55 49 45 43 47 48 48 46 47 46 45 43 42 42 42 40 39 39 39 39 40 39 38 39 38 38 39 38 38 39 42 43 48 53 58 57 50 46 45 43 42 42 46 50 51 53 56 59 63 67 71 74 75
59 56 56 53 48 44 43 48 47 46 46 44 45 43 43 42 42 41 40 41 41 41 41 40 40 41 42 41 40 41 42 44 47 53 58 58 53 51 50 50 47 44 47 52 55 57 58 61 64 68 72 74 75 74
53 55 56 52 50 49 45 47 47 42 45 47 46 45 46 46 45 44 44 43 44 44 43 43 43 41 41 43 44 44 44 48 55 59 57 52 50 51 52 53 50 51 53 56 59 60 63 67 70 73 74 73 73 74
49 52 54 55 51 52 49 46 48 49 45 48 48 48 46 46 46 46 44 45 44 46 46 47 45 45 42 43 44 46 50 54 57 50 47 49 53 54 55 54 54 56 57 59 61 64 68 71 72 73 71 71 73 74
48 47 50 51 52 53 53 53 48 47 48 51 51 52 51 47 47 46 46 46 45 45 47 47 47 48 51 53 54 56 57 55 50 49 51 53 54 57 58 59 61 61 61 62 65 68 69 69 68 67 71 73 74 74
51 48 49 52 53 54 52 51 52 52 45 53 49 50 51 47 44 52 51 49 50 51 53 55 56 57 55 50 49 50 52 52 53 54 55 56 57 59 59 58 58 59 61 63 66 66 65 64 67 70 72 73 74 75
58 53 50 54 57 58 57 53 51 51 48 51 53 49 44 43 41 41 47 47 52 57 58 55 49 46 46 48 48 51 53 55 57 58 58 60 60 56 56 57 59 60 62 62 63 63 66 69 71 71 72 74 76 73
48 55 52 47 54 54 56 58 54 58 53 52 53 53 46 47 45 46 48 47 51 51 49 49 49 49 49 49 50 52 54 57 59 59 60 61 59 59 59 60 61 62 61 63 65 68 70 71 73 74 76 75 73 72
38 47 53 52 48 54 53 51 57 58 59 55 55 55 54 56 57 54 52 51 51 52 51 49 49 50 50 51 54 57 58 58 59 59 59 56 56 58 59 61 61 61 64 66 67 69 71 72 73 73 71 71 73 71
40 43 47 51 50 50 53 54 52 52 49 50 52 55 53 56 57 53 53 57 58 57 56 56 57 55 54 55 56 57 57 58 58 56 53 53 56 59 60 59 60 62 64 66 69 70 72 73 71 69 70 70 68 65
41 42 43 40 46 48 49 46 51 55 59 58 56 56 57 57 57 57 58 57 55 58 61 60 59 57 54 54 54 54 53 54 52 51 53 55 57 58 56 58 62 64 66 67 68 69 67 66 67 65 65 64 63 62
33 36 41 41 34 40 45 52 49 46 51 61 61 58 57 60 63 64 64 62 60 60 59 59 56 52 49 49 49 49 50 50 50 53 55 57 57 57 59 62 64 64 65 66 64 63 64 64 63 61 60 60 61 59
35 36 40 40 36 31 35 39 44 48 47 47 44 44 44 45 48 50 52 52 50 48 46 45 44 46 48 49 49 49 50 52 55 57 59 59 58 59 61 62 63 64 62 59 59 61 61 60 58 58 58 57 53 50
36 30 32 37 41 40 33 32 33 37 41 41 43 43 43 45 45 44 45 44 42 44 45 45 46 47 48 49 48 51 54 57 60 60 58 57 57 58 60 60 60 57 56 58 59 58 56 55 54 54 51 49 45 45
30 23 26 30 35 36 37 40 38 36 34 34 35 38 41 43 45 46 45 46 46 47 48 47 49 48 46 50 53 57 60 60 56 53 53 54 56 57 57 55 54 55 56 57 56 54 52 49 47 47 46 45 42 39
33 25 26 28 28 28 33 34 34 37 39 38 40 41 41 43 44 45 46 46 46 47 48 48 46 47 50 54 55 54 52 52 52 51 52 52 52 51 51 53 55 55 55 54 52 51 46 41 42 43 43 42 40 36
36 35 37 39 32 28 29 25 26 29 31 34 36 38 39 41 43 44 44 45 45 45 45 44 47 50 49 47 47 47 47 49 50 51 49 45 46 49 52 55 55 54 52 49 48 43 39 39 41 43 42 41 39 36
30 30 31 29 31 32 32 31 30 30 31 33 35 37 39 40 40 41 41 41 41 38 42 45 43 42 43 43 44 46 47 47 46 46 47 49 50 51 51 53 52 48 48 47 43 38 37 41 43 44 41 39 39 36
21 19 21 22 22 24 24 25 27 30 32 33 35 36 36 37 35 34 34 33 32 36 38 37 38 39 39 39 40 43 45 45 47 49 51 52 51 52 52 51 49 46 44 41 40 39 40 43 43 41 39 38 38 35
19 21 22 23 24 25 26 31 33 31 30 30 29 26 26 27 28 29 28 29 31 33 34 34 34 35 38 40 43 45 47 49 49 49 51 52 52 51 49 44 42 41 41 41 41 40 40 40 39 38 37 36 35 32
18 17 17 17 18 18 17 20 21 21 22 25 27 28 29 30 29 27 25 26 28 29 31 33 35 37 40 43 46 48 50 51 50 49 48 52 50 46 41 38 36 35 36 36 34 34 35 34 31 30 30 29 29 30
14 15 19 20 21 21 22 24 26 27 28 29 30 30 30 30 29 28 25 27 29 30 33 35 37 41 44 48 50 53 55 55 52 49 46 46 44 40 35 32 32 33 34 35 35 33 32 30 26 27 29 32 34 36
16 18 20 23 24 25 26 27 28 29 29 28 26 26 27 28 28 28 31 33 35 37 39 43 46 49 49 50 54 56 56 52 48 45 43 40 39 38 36 35 35 34 34 34 34 33 30 29 32 34 36 37 40 41
21 22 23 24 24 24 24 25 25 26 27 28 29 29 31 32 34 37 39 41 43 46 49 50 52 54 54 52 48 44 43 43 42 41 39 38 38 36 35 35 36 37 38 38 37 37 38 39 41 41 42 42 44 44
21 21 21 23 24 23 22 24 25 28 30 31 32 32 36 40 42 44 47 49 51 52 51 50 49 49 49 48 46 43 41 40 38 37 34 32 33 34 33 34 36 38 38 39 40 41 42 43 44 44 46 46 45 44
18 19 19 19 20 21 24 28 28 31 32 35 37 40 42 46 49 48 45 45 47 49 50 51 51 50 48 46 43 42 39 38 35 32 32 33 34 35 37 40 42 41 42 42 41 42 43 44 45 46 46 46 45 43
20 21 23 24 25 29 33 34 35 36 37 38 40 41 40 41 42 41 41 42 43 45 47 53 55 49 45 40 36 36 36 34 34 35 37 37 38 39 41 42 42 41 40 39 40 42 44 44 44 44 43 42 42 42
29 30 31 32 32 33 33 32 32 31 32 35 37 37 37 38 38 38 39 41 42 43 46 45 40 31 26 30 33 33 34 34 34 36 38 40 42 42 43 42 40 40 40 40 43 42 41 42 44 45 45 44 44 45
32 34 35 35 35 32 31 31 31 30 30 31 32 34 36 38 39 40 41 41 41 40 41 40 36 32 29 27 28 31 33 35 37 38 40 41 42 42 43 43 44 44 45 45 43 42 45 47 45 43 43 44 46 46
Wind_Direction
212 216 218 213 211 214 213 215 215 213 213 214 217 218 220 222 224 226 229 230 231 233 233 236 239 243 248 253 257 263 269 274 280 285 287 291 298 306 310 310 312 311 305 301 304 308 312 310 311 312 314 313 312 311
212 214 218 213 214 213 214 213 216 215 214 215 217 219 222 223 225 228 231 233 237 239 241 243 244 247 251 256 260 265 271 276 283 284 286 291 300 307 307 308 307 308 299 293 299 310 309 308 312 311 311 311 312 314
211 212 215 218 215 214 217 216 216 218 217 216 218 221 223 225 228 231 233 235 238 241 244 246 249 252 256 260 265 270 275 280 282 285 288 294 304 306 307 306 306 309 295 293 295 304 303 307 309 310 311 312 313 311
209 207 210 215 217 218 218 219 220 221 221 220 220 223 226 228 229 232 235 238 240 242 244 246 249 252 256 261 266 272 275 277 282 284 288 297 304 306 304 302 304 305 297 296 299 304 304 306 305 308 312 314 311 310
209 209 215 213 213 216 218 219 221 221 224 224 224 226 230 232 233 233 235 238 240 242 244 246 250 256 261 264 268 272 276 279 282 286 291 298 302 303 299 301 308 301 294 297 304 305 307 307 308 311 313 312 310 309
215 218 218 219 218 219 221 221 220 224 225 227 228 230 232 234 235 236 238 240 242 244 248 249 253 258 261 265 268 272 275 280 287 292 294 295 299 297 297 300 304 302 300 299 302 304 304 306 307 309 309 308 308 310
219 219 221 222 222 217 223 225 218 223 227 229 230 232 234 235 236 238 240 241 244 247 250 253 256 258 265 269 274 274 275 285 292 292 292 292 293 292 294 297 303 302 300 300 301 302 303 303 304 306 305 306 309 308
219 221 221 221 220 216 220 224 223 226 235 232 233 233 234 238 239 240 244 245 248 252 254 256 259 264 266 266 267 270 279 288 288 287 287 289 289 292 296 299 300 299 298 298 299 300 301 303 304 304 305 306 306 308
220 218 219 219 220 218 218 223 225 225 236 234 231 238 240 242 245 246 249 251 251 252 256 259 265 269 272 276 273 274 279 282 279 282 284 286 289 292 296 298 299 298 296 297 298 299 300 301 302 304 305 306 307 308
220 219 218 212 214 215 218 223 225 227 233 232 230 238 244 243 249 246 248 255 256 258 259 263 266 271 273 277 280 277 276 279 280 281 284 287 292 295 296 295 295 293 294 295 296 298 300 302 303 304 306 307 308 309
219 219 220 218 213 213 214 218 224 231 232 231 231 237 239 240 249 249 247 252 255 259 263 266 266 267 272 276 279 278 280 283 285 287 290 292 294 294 295 295 294 294 296 298 300 302 302 303 305 306 306 308 310 312
220 220 219 218 219 219 218 219 222 216 223 233 237 235 239 242 244 246 252 252 254 259 260 266 273 272 271 275 278 279 280 281 284 288 289 293 296 296 297 297 297 297 299 300 300 302 305 306 306 308 310 310 311 312
225 221 221 220 219 224 222 223 220 220 221 222 223 230 235 235 244 246 253 257 258 263 265 266 267 270 273 276 276 277 278 281 284 286 292 295 297 297 296 295 297 299 299 300 303 304 304 306 308 309 310 310 311 311
224 223 220 224 219 219 227 224 223 218 219 226 230 235 236 238 235 245 247 249 257 261 263 265 267 265 269 272 273 276 280 283 287 293 294 294 293 294 295 298 298 298 300 302 302 303 304 307 309 309 310 310 310 312
222 219 217 218 226 224 219 222 226 223 217 217 219 225 227 234 240 243 246 249 254 259 263 263 263 265 268 272 275 279 284 286 289 290 290 291 292 294 297 297 297 299 300 301 302 305 307 307 309 310 310 311 311 312
221 215 212 211 218 224 226 229 229 222 222 226 232 236 237 238 241 245 249 255 257 258 259 262 265 268 269 273 278 281 282 285 287 288 290 291 294 296 295 295 297 299 300 304 306 307 308 309 310 311 312 312 314 315
226 221 212 210 212 218 222 223 229 236 238 235 235 237 241 244 243 244 247 250 253 256 258 262 267 271 276 278 280 282 284 284 287 289 291 294 296 294 294 296 298 302 305 306 307 309 310 311 312 312 314 316 316 315
199 213 216 216 218 218 219 222 225 229 230 234 236 240 245 249 251 256 260 260 260 261 264 268 272 275 277 279 281 281 282 285 286 290 293 291 292 293 296 298 302 304 304 306 308 310 310 311 312 314 317 319 319 317
199 210 215 221 226 229 231 235 234 234 235 238 242 245 247 249 251 253 254 256 259 262 266 270 274 277 279 278 279 280 282 285 289 288 290 292 293 296 299 300 300 303 307 307 307 308 310 312 313 315 319 321 320 323
191 198 213 205 223 233 237 241 245 246 246 249 251 253 256 259 261 262 264 266 269 272 275 276 275 275 274 276 280 283 285 286 288 289 291 293 296 297 297 298 301 305 304 304 306 308 310 312 313 315 317 318 319 321
195 200 202 208 224 235 231 237 244 247 251 253 255 257 259 261 263 265 268 271 273 276 274 273 272 275 277 280 282 284 285 286 287 289 292 292 291 294 297 300 301 301 301 302 304 307 307 310 313 312 312 315 317 317
185 192 199 210 218 225 232 242 251 255 258 259 263 266 268 270 270 271 272 274 275 275 272 273 276 277 279 281 283 284 284 287 291 293 294 295 296 297 296 296 298 302 302 304 304 305 303 305 310 312 311 312 312 313
212 211 215 219 229 239 247 257 266 272 276 278 280 280 277 272 272 272 272 273 275 272 276 279 280 281 282 283 284 286 288 290 293 295 295 295 295 294 295 297 299 300 300 300 301 302 300 302 306 308 307 308 309 311
220 229 240 249 254 262 268 278 283 281 277 273 270 266 266 269 270 272 276 277 274 278 280 283 284 284 285 285 286 288 292 294 294 295 295 295 295 297 298 298 296 298 300 300 300 301 303 304 305 306 307 307 308 308
257 258 267 276 275 269 261 262 258 258 262 268 271 273 275 274 276 279 281 276 275 279 280 283 286 286 285 285 289 291 291 293 296 298 297 294 297 299 297 297 299 301 303 304 305 305 306 309 310 311 313 314 313 311
234 242 252 250 250 255 256 260 263 266 268 271 272 273 273 276 279 280 279 277 280 282 284 286 285 285 288 291 293 293 295 298 298 295 294 292 295 296 296 294 295 299 300 302 303 303 303 304 305 308 312 313 313 314
246 252 256 256 260 262 264 267 270 272 272 271 271 271 273 275 278 280 281 283 284 285 285 285 286 288 290 290 291 293 295 295 291 288 286 286 289 292 293 291 293 294 297 299 300 302 301 300 300 302 305 307 309 310
251 255 261 266 270 272 273 272 270 267 268 269 273 277 283 286 287 287 288 289 288 288 289 289 288 289 290 290 291 293 294 293 289 285 282 285 286 287 289 290 292 293 295 298 298 297 296 296 298 300 302 305 307 308
257 258 261 266 270 270 268 269 270 274 278 281 283 283 284 285 285 284 284 286 288 289 289 288 288 287 286 286 286 288 291 290 286 281 277 278 281 283 285 289 293 296 297 297 297 297 297 297 298 299 302 305 306 307
272 276 275 274 273 274 273 271 272 274 275 277 279 280 282 284 285 288 291 292 292 291 291 290 288 285 280 275 275 279 285 287 284 277 274 278 279 280 284 291 294 294 295 296 296 298 299 300 301 303 304 306 307 308
274 279 281 278 276 279 279 280 281 281 283 284 285 286 287 288 290 292 294 294 296 300 302 304 303 294 272 267 268 269 275 278 274 271 272 276 279 282 286 289 291 291 292 293 296 298 301 303 304 304 304 305 305 304
278 282 283 285 284 281 283 285 285 286 285 286 286 286 289 292 296 300 301 301 304 305 307 312 316 307 285 264 263 267 270 273 274 272 273 276 279 282 285 288 289 290 290 294 299 300 301 303 304 303 303 303 304 305
278 281 282 280 284 283 283 283 286 289 291 291 293 297 298 299 299 300 299 299 302 305 306 312 316 314 300 284 272 268 268 270 271 273 275 277 280 283 286 289 292 295 298 298 298 298 301 303 303 303 303 304 304 305